Location: Antichan
(42.9728°N, 0.6667°E)
Time: 03:52:47
(UTC+00:00)

Cosmos 1570 Rocket - Visible Passes

Search period start: 26 November 2020 00:00
Search period end: 06 December 2020 00:00
Orbit: 764 x 787 km, 74.1° (Epoch: 25 November)

Date Brightness Start Highest point End Pass type
(mag) Time Alt. Az. Time Alt. Az. Time Alt. Az.
26 Nov 5.5 16:58:25 10° SW 17:03:18 36° WNW 17:08:11 10° N visible
28 Nov 6.5 17:33:50 10° W 17:36:35 14° NW 17:39:20 10° NNW visible
29 Nov 6.2 16:57:29 10° WSW 17:01:27 21° NW 17:05:25 10° N visible
02 Dec 6.5 16:57:40 10° WNW 16:59:46 12° NW 17:01:53 10° NNW visible
